Location: Unspecified
(42.3650°N, 71.1030°W)
Time: 15:22:46
(UTC+00:00)

SR - Pass Details

Date: 22 June 2024
Orbit: 581 x 856 km, 66.7° (Epoch: 19 July)

Event Time Altitude Azimuth Distance (km) Brightness Sun altitude
Rises 00:55:27 0° 314° (NW) 2,805 ? -5.4°
Reaches altitude 10° 00:58:07 10° 298° (WNW) 1,904 ? -5.8°
Maximum altitude 01:01:14 20° 250° (WSW) 1,375 ? -6.2°
Drops below altitude 10° 01:04:23 10° 203° (SSW) 1,936 ? -6.6°
Sets 01:07:08 0° 186° (S) 2,868 ? -7.0°
